Theta_e
337 337 337 337 337 337 337 338 338 338 338 338 337 336 335 335 335 335 334 334 334 332 331 330 330 329 328 326 323 319 316 315 313 310 308 309 310 311 311 310 310 309 308 306 305 305 304 303 302 303 304 306 307 307 307 307 308 307 305 303 302 303 302 302 302 301 300 298 296 296 296 296 296 296 297 297 297 297 298 298 298 298 298 298 298
337 338 337 337 337 337 337 337 337 338 338 337 336 336 335 334 334 334 333 333 333 332 331 330 330 329 327 324 320 317 315 314 312 310 309 309 309 309 309 309 308 307 306 305 304 303 302 301 301 301 301 303 304 305 306 305 305 305 304 303 303 303 302 302 302 300 300 298 296 296 296 296 297 297 297 296 296 297 297 297 298 298 298 298 297
337 337 337 337 337 337 336 337 337 337 337 336 336 335 334 334 334 334 333 332 332 331 331 330 329 328 326 322 318 316 315 314 312 310 309 309 308 308 308 308 307 306 305 304 303 302 301 301 300 300 300 300 301 301 303 304 304 304 304 303 303 302 302 302 302 300 299 297 296 296 296 296 297 297 297 297 297 297 297 297 297 298 298 298 297
337 337 337 337 337 336 336 336 336 336 336 335 335 335 334 334 334 333 332 332 332 331 330 329 328 327 324 320 317 316 315 313 312 310 309 309 308 308 307 307 306 306 304 304 303 302 302 301 301 301 300 300 300 299 300 301 302 303 303 302 302 302 301 301 301 300 299 297 296 296 296 297 297 298 298 298 298 297 297 297 297 298 298 298 297
337 337 337 337 336 336 336 335 335 335 335 335 335 334 334 334 333 332 332 331 331 330 329 328 327 325 321 319 317 316 315 314 311 310 309 308 308 307 307 306 306 305 304 303 303 302 302 301 301 301 300 300 300 299 299 299 300 301 301 301 301 301 301 301 300 300 299 297 296 296 297 297 298 298 298 298 298 297 297 297 297 297 298 298 297
337 337 337 336 336 335 335 335 334 334 334 334 334 334 333 333 332 330 330 330 331 330 329 328 326 323 320 318 317 316 315 313 311 309 308 308 307 307 306 306 305 304 303 303 302 302 302 301 301 301 301 300 300 300 300 299 300 300 301 301 300 300 300 300 300 300 299 296 296 297 297 298 298 299 299 299 298 298 297 297 297 297 298 298 297
337 337 337 336 335 335 335 334 334 334 334 334 334 334 333 332 330 328 329 330 331 330 329 327 324 321 318 318 318 317 315 313 310 309 308 308 307 306 306 305 304 303 303 302 302 302 302 301 301 301 301 301 301 301 300 300 300 300 300 300 300 300 300 300 300 299 297 296 296 297 298 298 299 299 300 299 299 298 298 298 297 297 297 297 297
337 337 336 336 335 335 335 334 333 333 333 333 334 333 332 331 329 328 329 330 330 330 328 326 322 319 318 318 318 316 314 312 310 308 308 307 307 306 305 304 303 302 302 302 303 303 302 302 302 302 302 301 301 301 301 301 300 300 300 300 300 299 299 300 300 297 296 296 297 298 298 299 299 300 299 299 299 298 298 298 297 297 297 297 297
337 337 336 335 335 335 334 333 333 332 333 333 333 332 331 331 330 329 329 330 329 328 327 325 321 318 318 318 317 316 313 311 309 308 307 307 307 306 305 304 303 302 303 303 303 303 303 302 302 302 302 301 301 301 301 301 301 300 300 300 299 298 299 300 298 296 295 296 297 298 298 299 300 300 299 299 299 298 298 298 297 297 297 297 297
337 337 336 335 335 334 334 333 332 332 332 333 332 330 330 330 329 328 328 328 327 326 325 323 320 319 319 318 316 315 312 310 308 307 307 307 306 306 305 304 303 303 303 304 303 303 303 302 302 302 302 301 301 301 301 300 300 300 299 299 298 297 298 299 297 295 296 297 298 298 298 299 300 300 299 299 299 298 298 298 298 297 298 297 297
337 337 336 335 335 334 333 332 332 331 332 332 331 330 329 329 328 328 328 327 325 325 323 321 319 319 319 318 316 313 311 309 308 307 307 307 306 306 305 304 303 304 304 304 304 303 303 303 302 302 302 301 301 301 300 298 298 299 298 297 297 296 297 297 296 296 297 298 298 299 299 299 300 300 299 299 298 298 298 298 298 297 298 297 297
337 337 336 335 334 334 333 332 331 331 331 331 331 329 328 328 327 327 327 326 325 324 322 320 319 318 318 318 315 312 309 308 308 307 307 307 307 306 306 305 305 304 305 304 304 304 303 303 303 302 302 302 302 302 301 297 296 298 297 296 296 295 296 296 296 296 297 297 298 299 299 299 299 300 300 299 298 298 298 298 298 298 298 297 297
337 337 336 335 334 333 332 331 331 331 330 329 329 329 328 326 326 327 326 325 325 324 320 319 319 318 318 317 314 311 309 308 308 308 307 307 307 306 306 305 305 305 305 304 304 304 303 303 303 303 302 302 302 302 301 297 295 296 295 295 295 295 295 295 295 296 296 297 298 299 299 299 299 300 299 298 298 299 298 298 298 298 298 298 298
337 336 335 334 334 333 332 332 331 330 328 327 327 327 327 327 326 327 325 323 323 322 319 318 318 318 318 316 313 310 309 308 308 308 308 307 307 306 306 305 304 304 304 304 304 303 303 303 303 303 302 301 301 301 299 296 294 295 295 295 296 296 296 296 296 295 295 296 298 299 299 299 299 300 299 298 298 299 298 298 298 298 298 298 298
337 336 334 334 333 332 332 332 331 329 327 327 326 325 325 326 325 325 324 323 324 322 319 319 319 318 317 315 312 310 309 309 308 308 308 307 307 307 306 305 305 304 304 304 304 303 304 304 303 303 301 299 299 299 297 294 294 296 297 298 298 298 299 298 297 296 295 296 298 299 299 299 299 300 299 298 299 299 298 298 298 298 298 298 298
336 335 334 333 332 332 332 331 329 328 326 326 325 324 323 323 324 324 323 322 322 322 319 319 320 319 317 315 313 311 310 308 308 308 307 307 307 307 306 305 305 305 305 304 304 304 304 303 303 302 301 298 296 297 296 295 296 298 299 300 300 300 300 300 299 298 297 297 298 299 299 299 299 299 299 298 299 299 299 298 298 298 298 298 298
336 335 333 333 332 331 331 330 329 327 326 325 325 324 323 321 322 323 321 319 320 320 319 319 320 319 317 315 314 312 310 308 307 307 307 307 307 307 306 306 305 305 305 304 304 304 304 304 302 301 300 297 295 296 296 296 297 298 299 299 300 300 301 301 301 300 298 297 298 299 299 299 299 299 299 298 299 299 299 298 298 298 298 298 298
335 334 333 332 331 331 331 330 328 326 325 325 324 323 323 322 322 323 321 320 322 321 319 320 319 318 317 316 314 312 310 309 308 307 307 308 307 307 306 306 305 305 304 304 305 304 303 304 302 300 299 297 295 294 295 296 297 298 299 300 300 300 301 301 301 301 300 298 298 298 299 299 299 299 299 299 299 299 299 298 298 298 298 298 298
335 333 332 332 331 331 330 329 328 326 325 325 324 323 322 323 324 323 321 322 323 321 319 319 318 318 318 317 315 312 310 309 308 307 307 308 307 307 306 306 305 305 305 305 304 304 303 303 302 300 300 299 295 293 295 297 297 298 299 300 300 300 300 301 301 301 301 299 298 297 298 299 299 299 299 299 298 299 299 299 298 298 298 298 298
334 333 332 331 331 331 330 328 327 326 325 325 324 322 321 322 323 322 320 321 320 319 318 319 319 318 318 317 315 313 311 310 309 308 308 308 308 307 306 306 305 305 305 304 304 304 303 303 302 300 301 301 296 292 294 296 297 297 298 298 299 299 298 300 301 301 301 300 298 296 297 298 299 299 299 299 299 299 299 299 298 298 298 298 298
334 333 332 331 330 329 328 328 327 326 325 325 324 322 321 322 322 322 320 319 317 316 318 319 319 319 318 317 315 313 312 311 310 308 308 308 308 307 306 306 306 305 305 304 304 304 302 302 302 301 302 302 297 293 294 296 296 297 298 297 297 296 296 299 301 301 301 300 298 297 297 298 299 298 299 299 299 299 299 298 298 298 298 298 298
332 331 331 330 329 328 327 328 328 325 324 324 323 322 321 321 321 321 319 317 316 315 316 316 316 315 315 314 314 313 312 312 310 309 308 308 307 307 306 306 306 306 305 305 305 304 303 302 302 302 302 302 299 294 294 295 296 298 300 299 296 294 295 299 301 300 300 300 298 297 297 298 298 299 299 299 299 299 299 299 298 298 298 298 298
331 330 329 328 328 327 327 328 327 325 323 323 322 321 320 319 319 318 317 316 315 314 314 313 312 312 311 310 311 311 311 311 310 309 308 307 307 307 306 306 306 306 306 305 305 305 304 303 303 303 302 302 301 298 297 297 298 300 301 301 299 295 295 299 301 300 300 299 297 296 297 298 298 299 299 299 299 299 299 299 299 299 299 298 298
330 329 328 328 327 327 326 326 325 324 323 322 322 321 320 318 317 317 316 315 314 313 312 311 311 310 309 309 309 309 310 310 310 310 309 308 307 307 306 306 306 306 305 305 305 305 305 304 304 303 302 302 302 302 301 300 301 301 302 302 300 297 296 298 300 300 300 299 297 296 297 298 298 298 299 299 299 299 299 299 299 299 299 299 299
329 329 328 328 327 325 324 324 324 323 322 322 321 320 319 317 316 315 315 314 314 313 311 310 310 309 308 309 309 309 309 310 310 310 309 308 307 306 306 306 306 306 306 306 305 305 305 304 304 303 302 302 303 303 302 302 302 302 302 301 301 299 296 296 298 299 300 299 298 296 296 297 298 299 298 298 298 298 298 299 299 298 298 299 299
329 328 328 326 324 324 323 322 322 321 321 321 321 321 319 318 316 315 314 314 314 313 311 310 309 309 309 308 308 307 307 308 309 310 309 307 306 306 306 306 305 305 305 306 305 305 305 305 304 303 302 302 303 304 303 303 303 302 302 301 301 300 298 296 296 296 297 297 297 296 295 295 297 298 298 299 298 298 298 298 298 298 298 298 299
328 327 325 324 323 322 322 321 320 320 320 319 319 319 318 317 316 315 314 314 313 312 310 309 309 309 309 308 307 307 307 307 308 308 308 306 306 306 305 306 305 305 305 305 305 305 305 304 304 303 302 303 304 304 303 303 303 303 302 301 301 300 300 298 296 295 294 294 294 294 294 294 295 297 298 298 298 298 298 298 298 299 298 298 298
326 325 323 322 321 321 321 321 320 320 319 319 318 317 317 317 316 316 316 315 314 312 310 310 311 312 310 307 306 306 306 307 309 309 308 307 307 306 305 305 305 305 305 305 305 304 304 304 303 303 303 303 304 303 303 303 303 302 302 301 301 300 300 299 296 295 294 293 293 293 293 293 294 296 297 297 298 298 299 299 299 299 299 298 298
325 323 322 321 320 320 320 320 320 320 319 319 318 318 318 318 318 318 318 318 318 316 315 315 315 314 311 310 310 308 307 309 312 312 310 309 308 307 306 306 306 306 305 305 305 304 303 303 303 303 303 303 303 303 303 302 302 302 302 301 301 300 300 298 297 297 296 294 292 293 294 294 294 295 295 296 297 298 299 299 299 299 299 298 298
323 322 321 320 320 320 319 319 320 319 319 318 317 317 317 317 318 318 318 318 318 318 318 317 316 314 312 314 315 313 313 315 315 313 311 310 309 308 308 308 307 306 305 304 303 303 303 303 303 303 303 302 302 302 302 302 302 302 302 301 301 300 300 299 299 298 297 295 293 293 293 293 293 294 294 295 297 298 299 299 299 299 299 298 298
322 321 320 320 320 319 319 318 318 318 318 318 317 316 315 315 316 317 317 316 316 316 316 316 316 315 316 317 316 315 315 316 315 313 312 310 309 309 309 308 307 306 304 304 303 302 302 302 302 302 302 302 301 301 301 301 301 301 301 301 301 300 299 299 300 299 297 295 293 292 293 293 294 294 294 295 297 299 300 300 299 299 299 298 298
322 321 320 320 319 319 318 318 318 318 318 317 316 316 315 313 313 314 315 315 315 315 315 316 316 317 317 318 317 315 314 314 314 313 312 311 310 309 309 309 307 306 304 303 302 301 302 302 302 302 302 301 301 301 301 301 301 301 301 301 301 300 300 300 300 298 296 294 294 295 296 295 295 294 295 296 298 299 299 299 299 299 299 299 298
322 320 320 318 318 318 318 317 318 318 317 316 316 315 314 313 312 312 313 313 314 314 314 315 315 316 316 316 316 315 314 314 314 313 312 311 310 310 309 308 307 305 303 302 301 301 301 301 301 301 301 301 301 301 301 302 302 302 301 301 301 301 300 300 298 296 295 295 297 297 297 296 296 297 298 299 299 299 299 299 299 299 299 299 298
322 321 319 318 317 317 317 317 317 317 316 316 316 315 315 315 313 312 311 311 311 312 312 313 314 314 314 314 314 314 314 313 313 312 311 310 309 309 308 307 304 303 302 301 301 301 301 300 301 301 301 301 301 301 301 302 302 302 302 301 301 301 299 297 295 295 296 298 298 298 298 298 298 299 299 299 299 299 299 299 299 299 299 298 298
321 320 319 318 317 317 317 317 317 317 316 316 315 315 315 315 314 313 312 311 310 310 311 311 311 311 311 312 313 313 312 311 311 310 310 309 308 308 307 305 303 301 301 301 301 301 301 301 301 301 301 300 300 300 300 300 300 301 301 301 302 300 298 296 295 296 298 299 299 298 298 299 299 299 299 299 299 299 299 299 299 299 299 299 298
319 318 318 317 317 317 317 317 317 317 317 316 315 315 315 314 314 313 312 311 311 310 310 309 309 309 309 310 311 311 310 310 310 309 308 307 307 306 305 304 303 302 302 301 302 302 302 301 302 301 301 301 300 300 299 299 299 299 299 300 300 299 297 296 296 298 299 300 299 299 298 298 299 299 299 299 299 299 300 300 300 299 299 299 298
319 318 317 317 317 317 317 317 317 316 316 315 315 314 314 313 312 312 311 311 311 310 309 308 308 308 308 309 309 309 309 308 308 308 307 306 305 305 305 304 303 303 302 303 303 303 302 303 303 302 302 302 302 301 299 299 298 298 298 298 299 299 298 298 298 299 300 300 300 299 298 298 298 298 298 299 299 299 300 300 299 299 299 298 298
318 318 318 317 317 317 316 315 315 315 315 314 314 313 313 312 311 311 311 310 310 309 308 307 307 308 309 309 308 308 308 308 307 306 305 305 304 304 304 304 304 303 303 303 303 304 304 304 304 304 303 303 302 301 300 300 299 298 297 297 297 298 298 298 299 299 300 300 300 298 298 298 298 298 298 299 299 299 299 299 299 298 298 298 298
317 317 317 317 316 316 315 314 314 314 313 313 312 312 312 311 311 311 310 309 309 308 308 307 307 308 309 309 308 307 307 306 306 305 304 304 304 304 304 304 303 303 303 303 303 303 304 304 304 304 303 303 302 302 301 301 299 298 297 297 296 296 296 297 298 298 299 299 299 298 299 299 298 298 297 298 299 299 299 299 299 298 298 298 298
317 317 316 316 315 315 314 313 313 312 312 312 311 311 311 311 311 310 310 309 308 308 308 308 308 309 309 309 308 308 307 306 306 306 305 304 304 304 304 304 303 303 303 303 303 303 303 304 304 304 304 303 302 302 302 301 300 299 297 296 296 296 296 296 297 298 298 298 298 298 298 299 299 298 298 298 299 299 299 298 298 298 298 298 298
316 315 315 315 315 313 312 312 312 312 312 312 311 311 311 311 310 310 309 309 308 308 308 308 308 309 309 309 308 308 308 308 307 306 305 304 304 304 304 304 303 303 302 302 302 302 302 303 304 304 304 303 302 302 301 301 299 298 297 296 296 296 296 296 296 296 296 297 297 297 298 298 298 298 298 298 298 299 299 298 298 298 298 298 298
315 315 315 314 314 313 312 312 312 312 312 311 311 311 311 310 310 309 309 309 309 308 308 307 307 308 308 308 308 308 308 307 306 305 304 304 304 304 303 303 302 302 301 301 301 301 301 302 303 304 303 302 302 301 301 300 298 297 296 296 296 296 296 296 296 296 295 296 296 297 297 297 297 297 297 297 298 299 299 298 299 299 299 299 300
316 315 313 312 312 312 312 312 311 311 311 311 310 310 310 310 309 309 309 309 309 308 308 307 307 307 307 307 306 306 306 305 304 303 303 304 304 303 303 303 303 302 301 301 300 300 300 301 301 302 301 301 301 300 300 299 297 296 296 296 296 296 296 296 296 296 296 296 296 296 296 296 296 296 296 297 298 299 299 299 299 299 299 300 300
315 314 312 312 312 312 312 311 311 311 310 310 309 309 309 309 309 308 308 308 308 308 308 308 307 306 306 305 305 305 304 304 303 303 304 304 305 305 304 304 304 303 302 301 301 300 300 300 299 299 299 299 299 298 298 297 296 296 296 296 296 296 296 296 296 296 296 295 295 295 295 295 295 295 296 298 299 299 299 299 299 299 299 299 299
315 314 312 311 311 311 311 311 311 311 310 309 309 309 309 309 309 308 308 308 308 309 308 307 306 306 305 305 304 304 304 305 304 304 305 306 306 305 305 305 305 304 303 303 303 301 301 301 300 299 299 299 298 297 297 296 296 296 296 295 296 295 295 295 295 294 294 295 295 295 295 296 295 295 297 299 299 298 298 298 298 298 298 299 299
315 314 312 312 311 311 311 310 310 310 309 309 309 309 309 309 309 309 309 309 309 308 308 307 306 305 305 304 304 304 305 306 306 306 306 306 305 306 306 305 305 305 304 303 303 302 302 302 301 300 300 299 299 298 297 297 296 296 296 295 295 294 293 293 294 294 295 295 295 295 296 296 296 297 298 299 298 298 298 298 298 298 298 299 299
314 314 314 313 312 312 311 310 310 310 309 309 309 309 309 309 309 309 309 309 308 308 307 306 306 305 305 305 305 306 306 306 306 306 306 305 305 305 305 305 305 305 304 304 303 303 302 302 301 300 299 299 298 298 298 297 297 296 295 294 293 292 292 293 294 295 296 296 296 296 297 297 297 298 298 298 298 298 298 297 298 298 298 299 299
315 315 315 314 314 313 312 311 310 310 310 309 310 309 309 309 309 309 309 309 308 308 307 306 306 306 306 306 307 307 307 307 307 306 306 306 306 305 306 306 305 305 304 304 303 303 302 301 300 299 298 298 297 297 297 296 295 294 293 292 292 293 293 294 295 297 298 298 297 297 298 298 298 298 298 298 298 297 297 297 297 298 298 298 298
317 316 316 315 314 313 312 311 311 311 310 310 310 309 309 309 309 309 309 309 308 308 308 307 307 307 308 308 308 308 307 307 307 307 306 306 306 306 306 305 305 305 305 304 303 302 301 300 299 298 298 297 297 296 296 295 294 293 293 293 293 294 294 296 297 298 299 298 297 297 298 298 297 297 297 297 297 297 297 297 297 297 297 297 296
317 317 316 315 314 313 312 311 311 310 310 309 309 309 309 309 309 309 308 308 308 308 308 308 308 308 308 308 308 308 307 307 307 307 306 306 306 306 305 305 305 305 304 304 303 302 301 300 298 298 298 298 298 297 297 296 295 295 294 295 295 296 297 298 298 299 299 298 298 297 297 297 297 297 296 296 297 297 297 297 297 297 296 296 296
316 316 316 315 314 313 313 312 311 311 310 310 310 310 309 309 309 309 309 308 308 308 308 308 308 308 308 308 307 307 307 307 307 307 306 306 306 305 305 305 305 304 303 303 302 301 300 299 298 298 299 299 299 298 299 298 298 297 297 297 298 298 298 299 299 299 299 298 298 298 297 297 297 296 297 297 297 297 297 297 296 296 295 295 295
Wind_Speed
36 36 35 34 34 34 35 36 35 35 34 32 31 30 30 30 30 30 29 26 25 25 24 22 21 19 19 19 19 17 15 13 13 13 12 13 14 14 14 15 15 16 17 17 16 16 16 16 15 14 14 14 13 13 13 14 19 23 22 20 16 13 15 16 15 12 11 11 10 9 8 8 9 10 9 9 8 8 6 5 4 4 5 5 6
37 36 35 34 34 35 35 35 35 34 34 32 31 30 30 30 30 30 30 28 26 25 24 22 21 20 20 20 19 17 15 14 14 13 13 14 15 15 15 16 17 18 18 18 18 17 16 16 16 15 13 13 14 13 14 14 15 18 18 16 15 14 15 16 17 16 13 12 11 10 8 8 9 10 10 10 9 8 8 6 5 4 5 6 6
36 35 34 34 34 34 34 34 34 34 33 32 31 30 30 30 30 31 30 28 26 25 23 23 21 20 21 21 19 17 15 14 14 14 14 15 16 16 17 18 18 19 20 19 19 19 18 17 17 16 14 14 14 13 13 14 14 15 15 14 15 15 15 15 16 17 15 13 11 10 9 8 10 10 10 10 10 9 9 9 6 5 5 7 7
35 34 34 33 33 34 34 34 34 34 33 32 32 31 30 30 30 31 31 29 26 24 23 22 21 21 22 22 19 17 16 15 15 15 15 16 16 17 18 19 19 20 20 20 20 20 19 18 17 17 15 14 14 13 12 13 13 14 14 14 14 15 14 13 14 16 17 14 11 10 9 8 9 9 9 9 9 9 10 10 8 6 5 7 9
34 34 34 33 33 34 35 34 34 34 33 32 32 31 30 30 30 31 31 30 27 24 23 22 23 23 24 22 19 18 16 16 16 16 16 16 16 18 19 19 19 19 19 20 20 20 19 18 18 17 16 15 14 13 12 12 12 13 14 14 14 14 14 12 11 13 16 15 13 11 9 8 8 7 7 8 9 9 10 11 10 7 5 6 9
35 34 33 33 34 35 35 35 34 34 33 32 32 31 30 30 30 30 30 30 27 24 23 24 24 24 24 21 19 17 16 16 16 17 17 17 17 18 19 19 19 19 20 20 21 20 19 17 17 17 16 15 14 14 12 12 12 13 13 14 14 14 13 12 11 12 14 15 14 12 10 8 6 6 6 7 8 9 10 11 11 10 7 6 9
35 34 34 34 34 35 36 35 35 34 33 32 31 30 30 29 28 28 28 27 25 23 23 25 25 24 23 20 18 17 16 17 17 17 17 18 18 19 19 19 19 19 20 20 20 20 18 17 16 16 15 14 13 13 12 11 11 12 12 13 14 14 14 13 13 13 14 15 14 12 9 7 5 4 4 6 6 7 10 12 12 11 9 7 9
35 34 34 34 34 36 36 35 35 34 33 32 31 30 29 28 27 27 27 26 24 23 24 26 26 24 22 19 18 17 17 17 18 18 18 18 19 19 19 19 20 20 20 20 19 18 17 16 15 15 14 13 11 11 11 11 11 12 12 13 13 14 15 15 14 14 14 15 14 11 8 6 4 2 2 4 5 6 8 10 10 11 10 8 7
35 35 35 35 35 35 35 34 34 34 33 32 30 29 29 29 29 28 28 26 24 23 25 27 27 24 22 20 18 17 18 18 19 18 18 19 19 19 19 19 20 21 20 19 18 17 16 15 14 14 13 12 10 9 9 9 10 11 13 14 13 14 15 15 15 15 15 14 13 11 8 5 3 1 1 3 5 5 7 8 8 9 11 9 6
34 34 34 34 34 34 34 33 33 33 33 32 31 30 30 30 29 29 27 25 23 24 26 27 27 25 23 21 19 18 18 19 18 18 17 18 19 19 19 19 20 21 20 19 18 17 16 15 14 13 13 11 10 8 8 9 10 11 12 13 14 15 16 16 16 16 15 14 13 11 9 6 3 2 1 2 3 3 5 7 7 8 10 10 8
34 34 34 33 33 34 34 34 34 34 33 33 31 31 30 30 29 29 27 24 23 24 26 27 26 25 23 21 20 19 19 19 18 17 17 17 18 18 19 20 20 20 20 20 19 17 16 15 14 13 12 11 10 8 7 7 9 11 12 12 13 14 14 16 17 17 15 14 14 12 10 7 4 2 2 1 1 2 4 6 7 8 9 8 6
34 34 33 33 34 35 35 34 35 35 33 33 33 32 31 30 30 30 27 25 24 25 26 27 26 24 22 20 19 19 19 18 17 17 17 17 17 18 19 20 20 21 20 20 19 18 16 16 15 13 12 11 10 9 8 8 10 12 13 13 13 13 12 13 15 15 15 15 15 13 11 7 3 3 3 2 1 1 4 5 6 8 9 8 7
34 33 33 35 36 36 35 35 34 34 33 32 33 33 32 31 31 29 27 26 26 26 27 26 25 24 22 20 19 18 18 18 17 16 16 17 17 18 18 19 20 20 20 20 19 18 17 16 15 13 11 11 11 11 10 11 14 16 16 15 15 14 13 12 11 12 13 14 14 14 11 6 3 3 4 3 2 1 3 4 5 6 8 9 10
33 33 34 36 37 37 36 36 34 32 32 31 32 33 33 33 31 29 28 27 27 27 27 26 25 24 22 19 18 18 17 17 17 16 16 17 18 18 19 19 19 20 20 19 18 18 18 17 15 13 12 13 15 14 14 16 19 19 18 18 17 16 15 14 13 12 12 12 13 13 10 6 4 4 5 4 3 2 2 3 4 6 8 9 10
32 33 34 35 37 37 37 36 34 33 32 33 32 31 32 33 32 30 29 28 27 27 28 27 25 24 21 19 18 17 17 17 16 16 17 17 18 19 19 19 20 20 19 18 18 18 17 16 14 12 13 16 16 16 16 20 21 20 19 18 17 16 16 14 13 13 12 12 13 12 9 6 5 5 6 6 4 4 4 3 4 6 7 9 9
31 33 34 34 36 38 38 37 35 34 34 34 34 32 31 31 33 32 29 28 27 27 28 28 26 24 21 19 18 17 17 17 16 17 17 18 19 20 20 20 21 20 20 19 18 18 18 16 14 13 14 15 16 16 18 21 21 20 19 18 17 16 16 14 13 12 11 12 12 12 9 6 5 6 7 6 5 4 4 4 5 6 8 9 9
31 33 34 35 37 38 38 36 35 34 34 34 34 34 33 32 32 32 30 28 27 27 29 29 26 24 22 20 19 19 18 18 18 18 19 20 21 21 22 22 21 21 20 19 19 19 19 17 14 13 14 16 17 19 21 21 20 19 19 18 16 16 16 14 14 13 12 12 12 13 10 7 6 8 8 7 5 5 5 5 5 6 8 8 8
31 33 34 36 37 37 37 37 35 35 35 35 35 35 34 34 33 32 31 29 27 28 30 29 27 24 23 21 21 20 20 19 19 19 20 21 22 23 23 23 22 21 21 20 20 21 20 18 15 15 16 16 18 22 23 22 21 19 18 18 17 18 17 16 15 15 13 12 13 13 11 8 7 8 8 7 5 5 6 6 5 6 8 7 7
32 34 34 35 36 36 36 36 36 36 36 36 35 35 35 35 34 32 31 28 28 30 31 30 28 26 24 22 22 21 20 20 20 21 22 23 23 24 24 24 23 23 22 23 23 21 20 19 18 18 17 16 19 23 25 23 22 20 19 19 19 20 19 17 16 15 14 13 12 13 12 9 8 9 9 8 6 5 6 6 6 7 8 7 7
33 34 34 34 35 35 35 35 36 37 37 35 33 32 33 34 34 33 30 28 29 31 32 30 28 26 25 23 24 23 22 21 21 22 23 24 24 25 25 25 24 24 24 25 24 22 22 23 21 19 18 18 19 24 26 25 23 21 20 21 22 22 20 18 17 16 15 13 12 12 12 10 9 9 9 9 7 6 6 6 6 7 7 7 6
32 33 34 35 35 35 35 36 37 37 37 36 35 33 33 35 35 34 31 29 30 31 31 31 29 28 27 26 26 25 23 21 21 21 23 24 25 26 26 25 24 24 25 26 26 23 23 24 23 21 21 19 19 23 26 25 23 22 21 22 22 21 20 18 17 16 15 13 12 12 12 11 10 9 9 9 9 7 6 6 6 6 7 7 6
32 33 35 35 35 35 36 37 38 36 35 36 37 36 34 34 35 34 33 32 32 31 31 31 30 29 28 28 28 26 24 22 21 21 23 25 27 27 27 25 24 25 26 27 28 25 23 22 23 23 22 20 19 22 24 24 24 23 21 18 17 17 18 17 16 15 15 14 13 13 13 12 10 9 10 10 9 8 7 7 7 7 7 7 7
33 33 34 34 35 36 36 37 37 35 34 35 35 34 32 31 31 32 33 32 32 31 30 29 28 27 26 26 27 27 26 24 23 22 23 25 28 28 26 25 26 26 26 27 27 25 23 22 22 23 23 22 21 21 22 22 23 23 20 16 15 15 16 16 16 16 15 14 13 13 14 12 10 9 10 11 10 9 8 9 9 8 8 9 9
33 33 34 34 34 35 36 36 35 34 35 35 33 32 31 30 29 30 31 32 31 30 28 28 28 26 25 25 27 28 27 26 24 23 23 25 27 28 28 27 27 27 27 26 25 24 23 21 21 22 23 22 22 22 22 22 23 23 21 17 15 15 16 17 17 17 16 15 14 14 14 13 11 10 10 11 11 10 9 9 10 9 9 10 11
35 34 34 34 34 34 34 34 34 34 35 35 33 32 31 30 29 30 31 31 31 29 28 28 28 27 26 26 27 28 28 27 26 24 23 24 26 28 28 29 29 28 28 27 25 23 22 21 20 21 21 21 22 23 23 23 24 23 22 20 18 17 17 17 17 18 18 17 15 14 15 15 12 10 11 12 12 12 11 11 10 10 10 10 11
34 34 33 32 33 34 33 32 32 33 35 36 35 35 35 33 32 31 31 31 31 29 29 28 27 26 26 26 27 27 27 27 27 25 24 25 26 28 29 30 30 29 29 27 25 23 21 20 19 19 20 21 22 23 24 25 24 23 23 23 21 19 17 17 18 18 18 18 16 14 14 14 13 12 12 12 13 13 12 12 12 11 10 10 11
33 32 31 31 32 34 34 32 32 33 33 34 33 34 34 35 34 32 31 30 28 27 27 26 26 25 25 25 25 24 25 26 26 26 26 26 26 28 30 31 31 30 30 28 26 24 22 20 19 19 20 20 20 21 23 25 25 24 24 23 22 20 19 18 18 18 18 17 16 14 14 13 13 14 14 13 14 14 14 14 14 13 12 12 12
33 32 31 31 32 33 34 34 34 33 33 33 32 32 32 33 34 34 34 33 30 29 27 27 28 29 28 26 24 22 24 26 27 27 27 27 26 27 29 30 31 30 30 29 27 25 23 21 20 20 20 20 20 22 24 26 26 25 24 23 22 21 20 19 19 19 18 17 16 15 15 15 14 15 15 15 16 16 16 16 16 15 15 14 13
31 30 30 31 31 32 34 36 35 34 33 33 32 33 34 35 35 35 34 34 34 33 33 33 34 33 31 28 26 25 25 26 26 26 27 26 26 25 26 27 28 29 29 29 27 24 22 20 20 21 21 22 22 23 24 26 26 25 24 23 22 21 21 21 22 21 19 18 17 17 16 16 16 16 16 17 18 17 16 15 15 16 15 15 14
28 28 29 31 32 33 34 34 34 33 33 32 30 28 29 30 31 31 31 32 33 33 33 33 33 32 30 29 27 24 22 19 20 22 24 24 24 24 23 23 24 26 27 26 24 22 21 21 22 23 23 22 22 23 24 24 25 24 24 23 23 23 23 23 23 22 20 19 18 18 18 18 18 18 18 18 18 17 15 14 14 15 15 15 15
26 27 28 30 32 33 32 31 31 31 31 32 31 28 26 24 24 25 26 28 29 29 28 28 27 27 27 26 24 23 21 17 15 16 18 21 22 23 23 22 23 24 25 24 22 21 21 22 23 23 21 21 22 23 23 24 23 23 22 22 23 23 23 24 24 22 20 19 18 18 19 20 20 20 19 18 18 17 17 16 15 16 16 15 15
30 28 29 30 32 32 30 30 31 30 29 29 29 29 26 22 19 18 20 23 26 26 25 25 25 25 24 22 21 22 21 18 16 14 14 16 19 20 20 21 22 23 23 22 21 21 21 22 23 22 21 22 23 23 23 23 23 23 22 22 22 23 23 24 24 22 19 18 17 18 19 19 20 20 19 18 18 18 17 16 16 17 18 17 17
33 30 29 30 31 30 29 30 30 30 30 29 29 28 27 24 21 19 17 18 20 22 22 23 23 22 22 21 21 19 17 15 15 14 13 12 14 15 17 19 21 22 22 22 21 22 22 23 23 23 23 23 24 23 22 23 22 22 23 22 23 23 23 22 21 19 17 16 16 16 17 16 16 17 17 17 17 17 17 17 16 17 18 18 18
32 31 31 31 30 30 30 31 31 30 30 30 30 29 28 27 25 23 21 19 18 19 20 21 22 21 20 20 20 18 17 15 14 13 12 11 11 13 16 19 21 20 20 20 21 23 24 24 25 25 25 25 25 24 24 24 23 23 23 23 23 23 22 19 18 17 16 15 14 14 14 14 15 16 17 16 17 17 17 17 17 17 17 18 18
31 32 34 33 31 30 31 32 31 30 30 29 29 28 28 27 27 26 26 24 23 21 21 21 21 21 20 19 18 17 17 16 14 12 11 11 12 14 17 20 20 19 18 19 21 22 23 25 25 25 25 26 26 26 26 26 26 25 24 24 24 23 22 19 18 17 16 14 13 12 12 14 15 17 17 16 16 16 15 15 16 16 16 16 16
27 29 31 32 32 31 31 31 32 31 31 30 29 28 27 27 27 26 25 24 22 21 21 21 20 19 18 17 17 16 16 15 14 13 12 12 14 17 18 20 20 19 19 20 20 21 23 24 24 24 24 24 24 24 25 26 25 25 25 25 24 24 23 21 19 18 16 14 13 12 12 14 15 16 17 17 15 15 14 14 14 15 14 13 13
27 29 29 28 29 29 29 29 30 30 29 29 28 27 26 25 25 24 23 21 21 20 20 20 20 19 19 18 18 18 17 16 15 14 13 14 16 17 17 18 17 17 18 19 20 21 22 23 23 24 24 24 24 24 23 23 24 24 24 24 24 24 24 23 21 19 18 16 15 13 12 13 14 14 14 15 14 13 14 14 13 13 12 11 12
28 29 28 27 28 28 28 27 27 28 28 27 27 26 25 23 23 22 22 21 21 20 20 20 21 22 22 22 22 21 19 18 17 17 17 17 17 17 17 16 16 17 18 19 19 20 21 22 23 23 23 23 24 23 23 22 22 22 21 21 22 23 23 22 21 20 20 19 17 15 14 14 13 11 9 11 12 12 12 13 13 11 11 11 13
25 26 27 26 27 27 27 28 28 28 27 27 26 26 25 24 23 23 22 22 21 20 21 21 22 22 23 23 23 23 21 20 20 19 19 19 19 18 17 17 18 19 19 19 19 20 21 21 21 21 22 22 22 22 22 21 21 20 18 18 19 20 20 20 20 20 20 20 18 17 17 18 16 12 9 8 10 11 11 11 11 11 11 13 13
25 25 25 25 25 25 26 27 27 27 27 27 26 26 26 25 25 24 24 23 22 22 22 23 23 23 23 23 24 24 23 22 21 20 19 20 20 20 19 19 19 19 19 19 20 20 21 21 21 21 20 20 20 20 20 20 19 18 16 16 17 18 18 18 19 19 20 19 19 19 19 20 19 16 12 9 9 10 10 9 10 11 12 13 12
24 25 24 23 23 24 25 26 26 26 27 26 26 26 26 26 25 24 24 23 23 23 23 23 23 22 22 22 22 21 20 20 19 19 20 21 21 20 19 18 17 17 17 18 18 19 19 20 20 20 20 19 18 18 18 17 16 15 14 14 15 16 17 17 18 19 20 20 20 21 20 21 21 20 16 11 9 9 9 9 10 12 12 11 11
22 24 24 23 24 25 25 25 25 25 25 26 26 26 26 25 25 24 24 23 23 23 22 21 20 19 19 18 18 17 16 16 17 18 19 20 19 17 16 14 14 14 13 14 14 15 16 17 18 19 19 18 18 17 16 15 13 12 12 13 14 15 16 16 17 18 18 19 19 20 20 21 21 21 17 13 10 11 11 11 12 12 11 10 11
23 24 24 23 23 23 24 24 23 23 23 23 23 23 23 23 23 23 23 22 22 22 21 19 18 17 16 15 15 15 15 16 17 18 19 18 16 14 12 11 10 10 10 10 10 11 12 13 15 16 17 16 16 15 15 13 12 11 11 12 13 14 14 15 15 16 16 17 18 19 21 22 22 21 18 15 14 13 12 12 13 12 12 12 13
23 23 22 20 19 19 19 20 21 21 20 19 19 19 19 20 20 21 20 20 20 19 18 18 17 16 15 15 16 16 17 18 19 19 18 16 14 12 10 9 9 9 9 9 9 9 10 11 12 13 13 13 13 13 13 12 12 12 12 12 12 13 13 14 14 14 15 15 16 18 19 21 22 20 18 16 16 15 13 13 13 13 13 14 15
21 21 21 20 19 18 17 18 18 18 18 17 17 17 17 18 18 18 18 18 17 17 16 16 16 16 16 17 17 18 18 18 18 17 16 15 13 12 10 9 9 9 8 7 7 8 9 9 10 10 11 11 12 12 12 12 12 12 12 12 12 12 13 13 13 12 13 14 14 14 15 17 20 21 19 18 17 15 15 14 13 12 13 14 14
21 22 22 21 20 19 18 17 16 17 17 17 17 17 17 16 16 16 16 16 16 16 16 16 16 16 16 17 17 17 15 15 14 14 14 14 13 13 11 10 9 9 8 8 7 7 8 8 8 9 9 10 11 11 12 12 12 12 11 11 11 11 11 11 11 10 10 11 12 11 11 12 16 19 19 16 15 15 14 12 11 12 12 13 12
22 22 21 19 18 18 16 15 15 15 15 15 15 16 16 15 15 15 15 15 15 15 15 16 17 17 16 16 15 14 13 12 12 12 13 13 13 13 12 12 11 11 10 8 7 7 7 7 7 8 9 9 10 11 11 11 11 11 10 10 10 10 10 10 10 9 9 9 10 10 10 9 10 13 14 13 13 12 12 11 11 11 12 12 11
19 18 17 16 16 15 15 15 14 14 14 14 14 13 14 14 14 14 14 14 14 14 15 15 16 15 14 13 12 10 10 11 11 12 12 13 13 13 13 12 12 12 11 9 8 7 6 7 7 8 8 8 8 9 10 10 11 10 10 10 10 10 10 10 10 9 9 8 8 8 8 7 8 9 10 11 10 10 10 11 11 11 12 12 11
16 15 15 15 15 15 15 15 15 15 15 14 14 14 14 14 13 13 13 13 13 13 13 13 12 11 10 9 9 9 9 11 12 12 13 12 12 12 12 12 12 13 12 11 9 7 6 7 7 7 6 6 6 7 8 10 10 11 11 11 10 10 10 10 11 10 10 9 9 8 8 8 8 8 8 9 9 10 10 11 11 11 11 11 10
14 15 15 15 14 14 14 14 14 14 14 14 14 13 12 12 11 10 10 10 10 10 10 9 8 8 8 8 8 9 10 11 11 11 11 11 10 11 11 11 12 12 12 11 9 8 7 7 8 7 6 5 5 6 8 9 10 11 12 12 12 12 12 12 12 11 11 11 11 10 10 10 9 9 9 9 10 11 11 11 11 11 11 10 9
13 14 14 13 12 12 12 12 11 11 11 11 11 11 10 9 7 7 6 7 7 7 7 8 8 8 9 9 9 9 10 10 10 9 9 8 9 9 9 10 10 10 10 9 9 8 8 9 9 8 6 6 5 6 7 9 10 11 12 12 13 13 12 12 12 12 12 12 12 11 11 10 10 10 10 10 11 11 11 11 11 11 10 9 9
Wind_Direction
193 194 195 196 197 197 197 197 197 197 198 200 200 199 201 202 201 200 201 206 209 207 206 207 210 214 217 219 219 212 204 203 206 207 208 207 201 198 195 193 192 189 184 181 179 182 181 175 171 170 173 176 173 174 179 183 191 194 197 199 194 190 186 165 136 134 145 140 132 126 118 103 85 77 73 69 68 68 66 66 57 39 39 44 40
193 193 193 195 197 197 196 196 196 196 196 197 197 198 199 199 201 202 201 205 208 207 208 209 212 217 220 218 215 208 204 205 207 208 208 204 198 196 196 194 192 188 184 181 178 180 181 174 165 161 165 169 166 168 173 173 182 188 190 196 193 185 187 171 145 138 144 142 137 133 125 107 86 76 69 65 65 63 60 63 61 51 48 46 40
192 192 191 194 196 195 195 195 195 194 194 194 195 197 197 199 203 204 202 203 206 208 211 211 214 219 218 214 210 206 204 206 209 210 207 204 199 196 196 195 194 191 185 182 180 181 180 174 165 161 162 162 158 160 166 169 174 178 177 182 183 176 182 183 161 145 142 142 142 137 126 107 88 75 66 64 62 59 56 56 61 66 54 44 39
190 189 191 193 193 192 193 193 193 193 193 193 195 196 198 201 204 203 201 202 204 207 210 214 218 219 214 210 207 206 206 206 208 208 206 205 202 198 195 195 196 195 190 186 184 183 182 176 169 166 165 161 155 155 160 163 169 171 167 168 172 168 169 178 173 158 148 143 142 138 125 107 89 71 59 56 54 56 55 52 58 69 58 44 37
188 188 189 189 189 190 191 191 192 192 192 193 195 196 199 203 203 202 200 199 201 205 210 215 218 216 211 208 206 207 209 209 208 205 203 203 203 200 197 196 197 196 194 190 187 186 186 182 175 172 171 165 159 157 158 159 162 165 162 161 163 164 163 167 170 164 154 144 140 138 126 110 93 67 46 38 36 42 49 50 53 58 56 46 38
186 186 186 186 187 188 189 190 191 191 191 193 194 196 200 202 200 199 197 194 197 206 213 216 216 213 210 208 208 210 211 211 209 205 202 201 201 202 200 197 197 197 195 193 191 189 189 188 182 178 178 175 167 162 160 160 162 163 163 162 161 161 161 159 159 158 151 143 140 138 131 119 96 65 41 30 26 27 35 40 45 49 44 32 32
185 184 185 186 186 186 188 190 191 190 190 192 194 196 200 201 197 194 195 196 200 206 213 216 214 212 210 208 210 213 212 210 209 206 204 201 200 201 199 197 197 196 195 193 193 192 192 193 190 185 186 186 179 172 168 166 167 168 168 165 163 162 159 155 155 154 149 144 142 140 135 122 92 60 33 27 31 29 27 26 29 36 36 25 23
183 183 184 185 186 186 189 190 190 189 190 191 193 194 197 200 199 197 199 201 204 209 213 214 212 209 209 209 212 215 213 210 208 205 204 203 202 201 199 198 196 194 193 193 193 193 194 196 196 193 194 196 193 187 183 180 176 174 174 172 169 165 159 155 155 155 152 149 145 143 141 126 94 68 19 19 30 26 22 21 16 17 23 24 19
181 182 184 185 186 185 187 188 188 187 187 188 190 190 193 199 200 199 199 200 204 210 212 212 210 207 206 209 214 216 214 212 209 206 205 203 203 203 201 200 197 194 192 192 193 193 192 194 195 195 197 200 201 201 199 201 200 192 185 181 176 169 161 158 159 158 157 154 150 150 154 148 121 110 323 6 24 20 14 17 14 10 13 22 28
180 181 183 184 184 183 184 186 185 184 185 185 186 187 191 196 195 192 194 198 201 206 207 207 209 208 206 209 213 214 214 213 211 210 209 206 205 204 203 201 199 197 194 193 192 192 192 194 195 196 200 201 201 202 202 210 217 213 202 189 181 173 165 162 164 164 161 159 159 163 169 169 156 154 251 339 16 21 12 11 9 7 11 19 30
180 181 182 181 179 179 180 182 182 183 184 183 185 187 190 192 190 189 194 197 199 203 204 205 208 208 207 211 213 214 213 213 212 211 211 211 209 207 205 204 202 201 201 199 196 194 194 195 195 196 199 199 198 200 204 210 213 213 205 193 187 182 174 169 168 169 169 167 168 175 181 182 176 180 221 278 343 7 8 4 360 1 4 9 10
180 180 179 177 176 177 179 180 181 182 182 182 184 187 188 188 187 188 192 194 196 201 203 205 206 206 208 212 214 215 214 213 213 213 212 213 213 212 210 208 206 206 206 204 202 199 196 193 193 194 196 200 203 206 210 209 201 196 189 183 184 188 188 183 179 178 178 177 178 184 190 191 188 194 215 235 264 350 2 1 356 355 356 352 347
179 178 176 175 175 176 178 179 180 181 180 181 182 184 184 184 184 187 191 192 194 199 202 204 205 205 208 212 214 215 215 215 214 215 215 215 215 216 215 212 211 210 208 207 205 202 197 194 192 191 195 205 209 211 215 206 190 181 175 173 176 179 183 188 189 188 188 187 187 190 192 197 206 203 209 222 240 299 347 358 353 350 351 350 347
176 174 174 174 175 175 177 180 181 180 179 178 180 181 182 184 186 188 189 190 192 196 200 201 203 205 209 212 214 215 216 217 216 216 218 218 217 217 216 215 214 213 211 210 207 203 201 199 196 198 210 217 213 209 208 197 185 178 175 174 175 177 179 182 185 187 191 197 199 196 196 204 216 210 208 214 233 276 308 333 338 339 346 347 350
173 172 172 174 174 174 177 180 181 180 179 178 179 180 181 183 184 186 188 190 193 196 199 201 202 205 209 211 213 216 217 218 218 219 219 219 218 217 216 215 215 215 214 213 209 206 204 202 205 218 227 224 217 211 201 191 185 182 182 182 183 184 186 187 187 189 194 201 203 202 207 216 219 214 210 213 235 266 274 294 314 321 335 346 356
170 170 172 173 173 174 176 178 179 178 177 178 179 180 181 181 181 184 187 190 192 195 198 200 202 204 206 208 211 214 217 217 218 219 218 217 217 216 215 216 216 216 216 212 208 205 205 207 216 230 235 230 224 214 201 194 191 189 192 194 195 198 199 198 197 198 200 203 203 206 214 224 226 218 208 212 242 265 262 278 299 310 328 341 353
171 172 173 174 175 175 176 177 178 177 176 177 179 180 181 181 180 182 185 186 187 193 197 199 202 203 203 206 209 211 213 213 214 215 215 215 215 214 215 215 215 217 216 212 208 207 207 213 222 226 230 234 228 212 202 200 199 199 202 205 208 212 212 210 209 209 209 208 207 210 219 227 230 223 211 214 243 266 264 273 292 309 323 333 339
173 174 174 175 174 175 177 178 178 176 176 177 179 180 180 180 181 183 185 185 187 194 197 197 200 202 203 205 208 209 210 211 212 213 213 214 215 214 214 214 213 215 214 209 209 209 206 211 224 227 228 233 226 211 204 206 208 209 213 215 219 222 221 219 218 216 215 216 214 217 224 231 235 227 217 218 240 265 269 271 287 305 317 323 324
175 174 173 174 174 175 178 180 178 177 178 180 181 181 179 179 181 185 187 188 189 193 196 196 197 201 204 207 208 208 210 211 212 214 214 213 215 215 214 212 211 212 212 209 208 209 210 218 232 236 235 237 228 214 208 210 214 217 221 224 228 230 228 227 224 221 221 223 224 226 228 233 241 236 226 225 241 266 272 269 277 295 307 315 319
176 174 172 172 174 177 179 179 179 179 180 180 181 180 178 178 180 183 185 187 188 190 193 196 198 201 204 208 211 211 211 212 214 216 216 215 215 215 213 212 211 211 211 210 207 210 219 229 237 238 237 239 230 218 213 215 219 223 228 231 235 238 237 234 231 229 229 230 236 239 235 234 241 240 233 231 242 263 270 264 270 287 298 305 310
173 171 170 172 175 178 179 181 181 181 181 181 180 180 180 180 180 181 182 184 185 187 191 196 199 201 204 209 212 211 211 213 215 217 218 217 217 216 215 215 217 216 213 212 212 218 228 233 234 234 236 238 230 220 218 223 226 229 232 235 240 244 244 240 236 234 234 238 246 246 238 236 240 241 239 236 241 257 264 258 268 285 294 299 301
168 167 168 172 175 176 178 181 183 182 181 180 179 178 180 181 180 179 178 180 184 187 190 194 198 201 205 209 212 211 211 214 217 218 220 220 218 218 218 220 221 220 216 214 216 224 236 239 236 234 235 236 231 223 223 227 230 231 233 237 243 248 247 244 241 238 240 247 252 246 238 238 242 241 238 236 239 251 254 251 264 282 296 303 300
164 165 167 171 173 175 178 181 182 182 180 180 178 176 176 178 178 176 176 178 181 184 188 192 195 199 204 208 211 212 212 214 217 219 222 222 220 220 221 223 224 222 220 220 223 230 241 244 240 237 236 235 230 225 224 226 228 231 235 239 245 247 245 244 243 242 245 252 254 248 240 240 243 239 234 232 237 246 247 247 259 274 290 301 300
162 165 168 170 174 177 179 180 181 180 178 178 177 174 174 175 175 176 177 177 177 181 186 189 191 196 202 206 209 211 212 215 218 222 225 226 223 222 223 224 225 225 226 227 231 237 243 245 243 242 239 235 229 227 226 226 228 234 237 239 244 244 242 243 243 244 248 252 255 254 247 243 245 242 234 233 237 244 246 247 256 269 283 293 297
163 167 170 174 176 176 176 177 178 178 177 176 175 173 172 174 174 176 178 177 179 181 184 188 191 194 198 204 208 209 211 214 217 221 226 228 226 224 223 224 226 228 229 231 235 241 246 248 248 248 246 241 235 232 232 231 233 237 238 239 242 243 242 245 245 246 248 252 258 260 252 246 249 247 239 238 241 245 251 255 259 269 279 288 294
166 170 175 177 174 172 173 174 175 175 175 177 177 176 176 176 176 177 179 180 182 183 184 187 190 192 198 204 207 207 208 212 216 220 224 226 226 224 223 223 225 228 229 233 238 243 246 247 249 250 250 247 242 238 236 234 235 237 237 237 240 243 245 248 249 250 253 257 261 263 258 254 253 247 240 241 245 249 257 264 266 267 272 283 293
168 172 174 173 170 170 171 171 170 171 173 175 176 176 177 178 176 177 180 181 181 183 184 184 186 192 199 203 204 205 208 212 216 220 222 222 223 223 223 222 223 225 227 232 236 239 242 245 248 249 249 246 241 238 237 236 236 237 237 237 240 243 246 250 253 255 258 260 262 265 263 259 255 248 245 248 252 255 261 267 268 267 269 278 288
169 171 172 170 168 169 170 169 169 170 172 173 175 176 177 178 179 182 185 185 183 182 183 186 192 198 200 198 197 201 207 213 218 222 222 222 222 222 222 222 223 225 227 230 232 235 239 243 246 244 239 235 234 236 238 238 238 239 239 240 242 244 246 248 251 253 256 259 262 264 263 260 256 252 253 256 258 261 265 266 263 263 267 272 278
168 168 168 167 166 167 168 170 171 171 171 174 177 180 182 184 185 188 191 194 194 192 192 196 202 204 201 198 198 199 205 215 223 225 225 226 226 225 224 224 226 228 230 230 230 231 232 235 237 235 229 228 233 238 240 239 238 239 241 242 243 244 245 246 249 251 255 258 260 262 263 262 259 256 256 259 262 265 268 263 257 258 263 267 270
165 165 165 166 167 168 170 171 172 172 171 172 173 177 182 187 190 192 193 196 199 201 202 204 205 204 202 205 210 211 215 225 230 228 227 228 229 230 231 233 233 232 230 227 226 226 226 226 227 227 227 229 233 237 240 240 239 241 242 244 246 246 246 247 250 253 255 256 259 262 263 263 262 260 259 261 265 267 268 262 255 256 260 264 267
164 168 169 170 171 171 171 170 170 171 171 171 171 171 174 181 190 195 196 197 198 203 207 210 212 212 212 215 218 220 224 232 233 229 229 229 229 230 233 235 235 233 230 226 221 220 221 222 223 226 229 234 237 239 241 243 244 246 247 249 250 249 248 249 251 252 253 256 260 263 265 265 265 263 262 264 268 269 268 262 256 257 260 263 266
169 172 173 174 174 171 169 168 168 168 169 169 169 169 167 168 173 184 194 199 202 206 210 214 218 219 222 224 223 220 222 228 230 231 230 229 229 230 231 233 234 233 231 227 220 218 220 222 225 227 230 234 237 240 243 246 249 252 252 252 252 253 252 252 252 251 252 256 263 268 270 271 268 265 264 266 268 269 267 263 259 258 260 263 267
171 171 171 172 171 169 167 166 167 169 169 168 168 170 170 167 164 167 178 191 200 206 211 215 218 220 221 224 224 224 225 228 230 231 228 224 223 223 225 229 230 228 226 221 217 219 222 224 226 229 232 235 238 240 244 247 251 255 256 257 259 260 259 256 252 249 251 259 270 275 275 271 267 264 263 264 265 266 267 267 266 263 259 260 265
170 170 171 170 166 165 166 166 168 171 170 170 172 174 175 175 172 167 167 173 184 196 204 211 216 218 219 220 221 221 222 223 223 223 221 217 212 211 216 223 224 224 225 223 221 223 224 225 229 233 235 238 241 243 246 248 251 254 256 259 263 265 262 255 247 245 251 263 275 279 276 273 269 265 263 263 264 266 267 267 270 268 263 262 265
170 172 173 169 166 166 167 168 170 171 172 174 176 176 176 178 178 177 176 176 180 186 195 202 208 211 213 214 214 214 216 216 212 206 204 206 207 207 210 214 214 215 219 221 224 226 227 229 233 237 239 242 245 247 249 251 252 253 255 257 260 262 260 253 246 246 254 265 273 277 281 284 280 271 264 261 262 264 266 266 268 271 270 269 269
166 168 168 168 168 170 171 172 172 174 175 177 178 178 178 179 181 182 183 183 182 184 190 196 199 202 204 207 208 209 209 208 205 200 200 207 212 210 207 209 210 213 217 220 224 228 231 235 239 241 243 246 249 251 253 254 255 257 257 256 257 258 258 255 253 253 259 265 268 271 282 294 294 281 266 257 255 256 259 263 268 274 274 270 268
168 168 167 168 170 171 172 173 174 176 177 176 175 176 177 179 181 181 181 183 185 186 187 189 190 191 194 197 201 203 201 198 200 205 208 213 216 215 214 214 216 219 223 227 230 233 236 241 245 246 248 250 251 253 255 257 260 261 260 258 257 256 256 257 257 257 260 262 262 264 277 295 304 294 270 254 249 249 255 264 271 274 271 266 267
172 171 170 171 172 170 170 171 173 175 175 173 173 174 174 175 178 180 182 184 186 185 186 187 188 190 193 195 197 198 197 196 201 206 209 212 215 217 220 225 230 233 236 238 239 240 243 248 251 251 252 254 254 255 256 258 261 263 263 261 260 258 257 258 258 256 255 253 249 250 260 274 289 297 281 256 248 251 260 269 272 270 268 269 272
170 170 172 174 172 170 169 171 171 171 171 170 171 172 172 172 175 179 182 184 184 185 186 188 191 196 200 199 197 196 197 201 206 209 210 215 220 224 227 233 237 240 242 243 243 245 248 251 253 254 255 256 257 258 258 259 260 262 263 263 261 258 256 255 254 252 251 248 243 241 247 255 266 283 288 263 247 251 260 266 267 266 268 270 272
171 170 172 172 170 169 170 170 169 169 169 169 169 171 173 175 177 179 181 181 183 186 189 192 195 201 204 204 203 201 201 204 209 213 215 219 224 228 231 235 239 242 246 248 249 251 253 253 253 254 256 260 262 261 260 260 259 260 261 260 258 256 255 253 252 251 250 248 244 243 246 250 256 266 274 266 248 245 249 252 258 263 265 267 269
168 167 169 171 171 171 169 168 169 170 171 171 172 174 176 178 180 181 181 183 185 189 193 198 202 205 207 209 209 208 207 209 212 216 220 224 227 230 233 238 244 249 254 257 258 258 258 257 255 254 256 262 264 262 260 258 257 258 260 258 256 256 255 253 252 251 248 246 245 244 247 250 253 257 264 265 247 232 231 238 248 255 258 262 267
165 165 168 173 175 173 170 169 170 172 172 174 176 178 179 181 181 183 185 188 192 194 197 200 205 208 211 214 213 211 214 218 219 222 225 228 230 233 238 245 251 257 263 267 267 266 265 263 261 260 261 264 266 263 259 256 254 258 262 260 256 254 253 252 253 252 249 249 250 250 252 255 254 253 257 257 237 221 224 234 241 246 252 260 267
169 168 169 172 174 174 172 170 169 170 172 174 177 179 180 181 182 185 188 191 195 198 200 202 205 208 211 213 213 213 216 219 221 224 227 229 232 237 243 250 257 263 268 271 271 271 269 267 265 265 265 265 265 262 258 255 254 257 262 261 258 256 255 254 255 256 256 257 259 259 257 254 250 249 251 245 227 218 223 232 235 241 251 259 266
170 167 166 169 173 175 174 172 171 172 173 174 175 177 179 181 182 186 189 192 197 202 205 205 206 206 207 208 209 211 213 217 220 224 227 230 234 239 244 249 253 255 259 265 268 269 269 269 268 268 268 266 265 262 259 257 256 256 259 260 259 256 254 254 255 256 258 261 263 262 257 250 244 241 238 229 218 216 223 229 233 243 255 261 266
169 167 166 167 171 175 176 175 174 173 171 171 172 174 178 182 185 188 192 196 200 205 207 208 208 208 208 209 209 210 213 218 223 228 232 234 236 238 241 245 249 250 252 260 266 267 269 271 271 270 269 268 266 265 262 259 257 255 256 257 256 254 254 253 252 253 257 259 262 265 263 252 239 230 222 216 215 218 225 232 241 255 265 268 270
167 166 166 166 167 170 171 171 171 171 170 171 172 172 177 184 189 193 196 200 203 207 208 208 208 208 209 210 211 213 218 224 229 234 237 238 239 242 242 239 243 251 257 260 262 263 263 262 258 256 256 254 254 254 251 247 245 246 247 248 250 252 250 245 243 248 255 260 265 274 278 262 240 226 219 216 218 224 232 243 257 268 270 269 269
164 162 161 161 161 162 162 162 164 166 169 172 174 176 181 187 192 195 199 202 206 210 210 208 207 207 208 212 216 221 227 233 238 241 243 243 244 247 243 237 239 248 255 259 261 258 251 243 240 240 241 241 240 239 236 232 230 230 230 232 236 237 233 229 234 246 256 262 268 277 280 264 236 223 219 221 227 235 246 258 267 269 266 264 264
156 153 153 156 157 158 159 160 161 164 167 172 178 183 187 192 195 199 202 204 207 210 210 209 208 208 210 217 225 232 239 245 248 250 252 251 250 247 242 237 238 244 250 256 259 254 241 230 226 225 227 229 229 227 222 216 212 211 213 216 220 222 224 229 239 247 249 248 254 264 263 246 223 217 223 232 242 252 262 266 265 263 261 260 260
149 149 154 158 161 162 161 161 163 166 169 173 179 184 188 193 196 199 201 205 208 210 211 210 211 213 218 225 232 237 242 246 248 249 250 249 248 245 240 236 238 244 250 254 253 245 232 222 215 211 210 213 215 213 207 203 201 202 205 210 216 220 226 234 239 238 233 231 232 237 238 233 228 232 241 251 257 261 263 262 260 259 258 258 257
153 156 158 158 159 160 160 161 164 166 168 172 177 179 182 187 191 196 200 205 210 215 218 221 222 225 228 230 229 231 234 237 238 241 243 244 244 242 240 240 244 248 249 245 239 233 226 216 207 199 197 198 201 201 199 197 199 202 206 211 217 222 226 231 231 227 224 224 226 229 231 236 242 248 253 258 260 259 259 258 258 258 257 253 245
160 162 160 157 157 159 160 161 163 166 170 175 179 181 183 188 194 201 209 217 222 227 232 235 235 233 231 229 227 229 230 231 233 236 238 240 240 239 239 243 245 243 236 229 225 222 219 211 202 195 194 196 197 196 197 197 199 203 207 212 217 221 223 224 223 222 222 225 227 229 231 236 242 248 252 254 255 254 254 254 254 252 248 238 226